Saint Ignace, MI

9:32 AM EST on February 19, 2017 (GMT -0500)
Mackinac Island

Weather History for KMCD - February, 2014

Change the Weather History Date:

Friday, February 21, 2014

  Actual Average Record
Temperature  
Mean Temperature 26 °F -  
Max Temperature 35 °F 26 °F 42 °F (1990)
Min Temperature 17 °F 14 °F -5 °F (1978)
Degree Days  
Heating Degree Days 38    
Moisture  
Dew Point 26 °F    
Average Humidity 94    
Maximum Humidity 100    
Minimum Humidity 81    
Precipitation  
Precipitation 0.02 in - - ()
Sea Level Pressure  
Sea Level Pressure 29.21 in    
Wind  
Wind Speed 18 mph (SSW)    
Max Wind Speed 25 mph    
Max Gust Speed 41 mph    
Visibility 3 miles    
Events Snow    
Averages and records for this station are not official NWS values.
T = Trace of Precipitation, MM = Missing Value Source: NWS Daily Summary

Daily Weather History Graph

Daily Weather History Graph

Search for Another Location

Airport or City:

Trip Planner

Search our weather history database for the weather conditions in past years. The results will help you decide how hot, cold, wet, or windy it might be!

Date:

Astronomy

Feb. 21, 2014 Rise Set
Actual Time 7:31 AM EST 6:13 PM EST
Civil Twilight 7:00 AM EST 6:44 PM EST
Nautical Twilight 6:26 AM EST 7:18 PM EST
Astronomical Twilight 5:51 AM EST 7:53 PM EST
Moon 12:26 AM EST (2/21) 10:33 AM EST (2/21)
Length of Visible Light 11h 43m
Length of Day
10h 42m
Waning Gibbous, 61% of the Moon is Illuminated
Feb 21
Waning Gibbous
Feb 22
Last Quarter
Mar 1
New
Mar 8
First Quarter
Mar 16
Full

Hourly Weather History & Observations

Time (EST) Temp. Windchill Dew Point Humidity Pressure Visibility Wind Dir Wind Speed Gust Speed Precip Events Conditions
12:17 AM 32.0 °F 18.9 °F 32.0 °F 100% 29.28 in 4.0 mi East 24.2 mph 41.4 mph N/A   Overcast
12:37 AM 32.0 °F 19.5 °F 32.0 °F 100% 29.29 in 4.0 mi East 21.9 mph 36.8 mph N/A   Overcast
12:56 AM 32.0 °F 21.2 °F 32.0 °F 100% 29.27 in 7.0 mi ESE 16.1 mph 35.7 mph N/A   Overcast
1:17 AM 32.0 °F 19.8 °F 32.0 °F 100% 29.25 in 4.0 mi ESE 20.7 mph 38.0 mph N/A   Overcast
1:36 AM 32.0 °F 19.8 °F 32.0 °F 100% 29.22 in 2.0 mi East 20.7 mph 34.5 mph N/A   Overcast
1:57 AM 32.0 °F 19.8 °F 32.0 °F 100% 29.19 in 2.5 mi East 20.7 mph 36.8 mph N/A   Overcast
2:17 AM 32.2 °F 20.7 °F 32.2 °F 100% 29.18 in 3.0 mi East 18.4 mph 35.7 mph N/A   Overcast
2:36 AM 32.4 °F 22.1 °F 32.4 °F 100% 29.16 in 3.0 mi ESE 15.0 mph 28.8 mph N/A   Overcast
2:57 AM 32.9 °F 22.8 °F 32.9 °F 100% 29.15 in 3.0 mi SE 15.0 mph 27.6 mph N/A   Overcast
3:17 AM 32.9 °F 23.7 °F 32.9 °F 100% 29.14 in 2.5 mi ESE 12.7 mph 27.6 mph N/A   Overcast
3:36 AM 33.1 °F 26.1 °F 33.1 °F 100% 29.14 in 2.0 mi ESE 8.1 mph 18.4 mph N/A   Overcast
3:57 AM 32.9 °F 25.9 °F 32.9 °F 100% 29.13 in 2.0 mi ESE 8.1 mph - N/A   Overcast
4:17 AM 33.1 °F 26.9 °F 33.1 °F 100% 29.12 in 3.0 mi SE 6.9 mph - 0.01 in Snow Light Snow
4:36 AM 34.7 °F 25.5 °F 34.7 °F 100% 29.12 in 10.0 mi SSE 13.8 mph 20.7 mph 0.01 in   Overcast
4:57 AM 34.7 °F 26.9 °F 34.3 °F 99% 29.13 in 10.0 mi South 10.4 mph 24.2 mph 0.01 in   Overcast
5:17 AM 35.2 °F 27.6 °F 32.9 °F 91% 29.13 in 10.0 mi South 10.4 mph 21.9 mph N/A   Overcast
5:36 AM 35.4 °F 27.3 °F 32.0 °F 87% 29.13 in 10.0 mi South 11.5 mph 24.2 mph N/A   Overcast
5:57 AM 34.9 °F 25.7 °F 32.0 °F 89% 29.14 in 10.0 mi South 13.8 mph 26.5 mph N/A   Overcast
6:17 AM 34.9 °F 25.3 °F 31.6 °F 88% 29.13 in 10.0 mi South 15.0 mph 21.9 mph N/A   Overcast
6:37 AM 35.1 °F 26.4 °F 31.5 °F 87% 29.13 in 10.0 mi South 12.7 mph 21.9 mph N/A   Overcast
6:57 AM 35.4 °F 26.8 °F 30.9 °F 84% 29.13 in 10.0 mi SSW 12.7 mph 26.5 mph N/A Snow Light Snow
7:17 AM 34.9 °F 24.9 °F 30.6 °F 84% 29.13 in 10.0 mi SSW 16.1 mph 28.8 mph N/A   Overcast
7:37 AM 34.7 °F 24.7 °F 30.6 °F 85% 29.13 in 10.0 mi SSW 16.1 mph 23.0 mph N/A   Overcast
7:57 AM 34.3 °F 27.0 °F 31.1 °F 88% 29.12 in 10.0 mi South 9.2 mph 17.3 mph N/A   Overcast
8:16 AM 34.7 °F 25.5 °F 30.6 °F 85% 29.13 in 10.0 mi South 13.8 mph 23.0 mph N/A   Overcast
8:37 AM 34.7 °F 24.3 °F 30.0 °F 83% 29.12 in 10.0 mi South 17.3 mph 28.8 mph N/A   Overcast
8:57 AM 34.3 °F 24.2 °F 30.0 °F 84% 29.12 in 10.0 mi SSW 16.1 mph 28.8 mph N/A   Overcast
9:16 AM 34.2 °F 24.0 °F 28.9 °F 81% 29.12 in 10.0 mi SW 16.1 mph 31.1 mph N/A   Overcast
9:37 AM 33.1 °F 24.4 °F 29.7 °F 87% 29.11 in 5.0 mi SSW 11.5 mph 21.9 mph N/A Snow Light Snow
9:57 AM 32.9 °F 21.6 °F 29.7 °F 88% 29.12 in 2.5 mi SSW 18.4 mph 31.1 mph 0.01 in Snow Light Snow
10:17 AM 31.1 °F 19.3 °F 28.4 °F 90% 29.12 in 1.2 mi SW 18.4 mph 31.1 mph N/A Snow Light Snow
10:37 AM 30.7 °F 19.2 °F 28.2 °F 90% 29.12 in 1.0 mi SSW 17.3 mph 27.6 mph N/A Snow Light Snow
10:57 AM 29.3 °F 15.6 °F 27.5 °F 93% 29.13 in 0.8 mi SSW 23.0 mph 34.5 mph N/A Snow Light Snow
11:17 AM 28.4 °F 17.5 °F 27.1 °F 95% 29.13 in 0.5 mi SW 13.8 mph 25.3 mph N/A Snow Snow
11:37 AM 27.0 °F 14.7 °F 25.7 °F 95% 29.14 in 0.5 mi SW 16.1 mph 33.4 mph N/A Snow Snow
11:57 AM 26.2 °F 12.6 °F 24.8 °F 94% 29.14 in 0.8 mi SW 19.6 mph 28.8 mph N/A Snow Light Snow
12:17 PM 25.7 °F 12.7 °F 24.6 °F 96% 29.14 in 0.5 mi SW 17.3 mph 27.6 mph N/A Snow Light Snow
12:37 PM 25.5 °F 11.6 °F 24.1 °F 94% 29.15 in 0.5 mi SW 19.6 mph 28.8 mph N/A Snow Light Snow
12:56 PM 24.4 °F 11.5 °F 23.0 °F 94% 29.15 in 0.2 mi SW 16.1 mph 33.4 mph N/A Snow Snow
1:17 PM 25.2 °F 11.2 °F 22.1 °F 88% 29.15 in 1.2 mi SW 19.6 mph 29.9 mph N/A Snow Light Snow
1:37 PM 24.6 °F 10.5 °F 21.9 °F 89% 29.15 in 0.8 mi SW 19.6 mph 29.9 mph N/A Snow Light Snow
1:57 PM 24.8 °F 9.6 °F 21.0 °F 86% 29.16 in 0.8 mi SW 23.0 mph 39.1 mph N/A Snow Light Snow
2:17 PM 24.1 °F 9.8 °F 21.0 °F 88% 29.16 in 0.5 mi SW 19.6 mph 39.1 mph N/A Snow Light Snow
2:37 PM 23.9 °F 8.4 °F 21.0 °F 89% 29.17 in 0.8 mi SW 23.0 mph 34.5 mph N/A Snow Light Snow
2:57 PM 23.4 °F 9.2 °F 21.7 °F 94% 29.17 in 0.5 mi SW 18.4 mph 26.5 mph N/A Snow Snow
3:17 PM 23.4 °F 7.4 °F 21.2 °F 91% 29.18 in 0.5 mi SW 24.2 mph 39.1 mph N/A Snow Snow
3:37 PM 23.0 °F 7.6 °F 21.2 °F 93% 29.20 in 0.2 mi SW 21.9 mph 39.1 mph N/A Snow Snow
3:57 PM 22.6 °F 7.1 °F 20.5 °F 91% 29.21 in 0.5 mi SW 21.9 mph 38.0 mph N/A Snow Snow
4:17 PM 22.5 °F 7.6 °F 20.8 °F 93% 29.22 in 0.2 mi SW 19.6 mph 35.7 mph N/A Snow Snow
4:37 PM 22.1 °F 6.0 °F 19.8 °F 91% 29.23 in 0.5 mi SW 23.0 mph 35.7 mph N/A Snow Snow
4:57 PM 21.2 °F 6.0 °F 19.9 °F 95% 29.24 in 0.2 mi SW 19.6 mph 36.8 mph N/A Snow Snow
5:17 PM 21.2 °F 4.2 °F 19.9 °F 95% 29.26 in 0.2 mi WSW 25.3 mph 40.3 mph N/A Snow Snow
5:37 PM 21.2 °F 6.4 °F 20.3 °F 96% 29.27 in 0.5 mi WSW 18.4 mph 31.1 mph N/A Snow Snow
5:57 PM 21.0 °F 4.6 °F 20.1 °F 96% 29.28 in 0.5 mi SW 23.0 mph 34.5 mph N/A Snow Snow
6:17 PM 21.0 °F 5.7 °F 19.9 °F 96% 29.29 in 0.5 mi WSW 19.6 mph 36.8 mph N/A Snow Snow
6:37 PM 21.0 °F 5.4 °F 19.9 °F 96% 29.30 in 0.8 mi WSW 20.7 mph 31.1 mph N/A Snow Snow
6:57 PM 21.2 °F 6.0 °F 20.3 °F 96% 29.31 in 0.8 mi WSW 19.6 mph 31.1 mph N/A Snow Snow
7:17 PM 21.2 °F 5.2 °F 20.3 °F 96% 29.32 in 0.8 mi WSW 21.9 mph 33.4 mph N/A Snow Snow
7:37 PM 21.2 °F 6.4 °F 20.3 °F 96% 29.32 in 0.8 mi WSW 18.4 mph 35.7 mph N/A Snow Light Snow
7:57 PM 21.6 °F 6.1 °F 20.8 °F 97% 29.33 in 1.0 mi WSW 20.7 mph 31.1 mph N/A Snow Light Snow
8:17 PM 21.6 °F 6.1 °F 20.3 °F 95% 29.34 in 1.0 mi WSW 20.7 mph 32.2 mph N/A Snow Light Snow
8:37 PM 21.2 °F 4.9 °F 20.3 °F 96% 29.35 in 1.0 mi WSW 23.0 mph 34.5 mph N/A Snow Snow
8:57 PM 21.0 °F 7.1 °F 20.3 °F 97% 29.35 in 0.8 mi SW 16.1 mph 32.2 mph N/A Snow Snow
9:17 PM 20.3 °F 3.3 °F 19.4 °F 96% 29.36 in 0.5 mi WSW 24.2 mph 34.5 mph N/A Snow Snow
9:37 PM 20.3 °F 4.0 °F 19.4 °F 96% 29.37 in 0.8 mi WSW 21.9 mph 32.2 mph N/A Snow Light Snow
9:57 PM 19.9 °F 3.5 °F 19.2 °F 97% 29.37 in 0.8 mi WSW 21.9 mph 36.8 mph N/A Snow Snow
10:17 PM 19.8 °F 4.1 °F 19.0 °F 97% 29.39 in 0.8 mi WSW 19.6 mph 33.4 mph N/A Snow Snow
10:37 PM 19.0 °F 4.0 °F 18.3 °F 97% 29.39 in 0.5 mi WSW 17.3 mph 29.9 mph N/A Snow Snow
10:57 PM 19.0 °F 2.0 °F 18.3 °F 97% 29.40 in 0.5 mi WSW 23.0 mph 33.4 mph N/A Snow Snow
11:16 PM 18.3 °F 2.2 °F 16.9 °F 94% 29.41 in 0.8 mi WSW 19.6 mph 34.5 mph N/A Snow Snow
11:37 PM 18.0 °F 0.2 °F 16.7 °F 95% 29.42 in 0.8 mi WSW 24.2 mph 33.4 mph N/A Snow Snow
11:57 PM 17.4 °F 2.4 °F 15.8 °F 93% 29.43 in 1.0 mi WSW 16.1 mph 32.2 mph N/A Snow Light Snow